TimeEST,TemperatureF,Dew PointF,Humidity,Sea Level PressureIn,VisibilityMPH,Wind Direction,Wind SpeedMPH,Gust SpeedMPH,PrecipitationIn,Events,Conditions,WindDirDegrees,DateUTC
12:15 AM,28.4,26.6,93,30.56,10.0,Calm,Calm,-,N/A,,Overcast,0,2013-11-21 05:15:00
12:35 AM,28.4,28.4,100,30.57,10.0,Calm,Calm,-,N/A,,Scattered Clouds,0,2013-11-21 05:35:00
12:55 AM,28.4,26.6,93,30.57,10.0,Calm,Calm,-,N/A,,Clear,0,2013-11-21 05:55:00
1:15 AM,28.4,26.6,93,30.57,10.0,Calm,Calm,-,N/A,,Clear,0,2013-11-21 06:15:00
1:35 AM,26.6,26.6,100,30.57,10.0,Calm,Calm,-,N/A,,Clear,0,2013-11-21 06:35:00
1:55 AM,26.6,24.8,93,30.57,10.0,Calm,Calm,-,N/A,,Clear,0,2013-11-21 06:55:00
2:15 AM,26.6,24.8,93,30.56,10.0,Calm,Calm,-,N/A,,Partly Cloudy,0,2013-11-21 07:15:00
2:35 AM,26.6,26.6,100,30.56,10.0,Calm,Calm,-,N/A,,Clear,0,2013-11-21 07:35:00
2:55 AM,26.6,24.8,93,30.56,10.0,Calm,Calm,-,N/A,,Partly Cloudy,0,2013-11-21 07:55:00
3:15 AM,26.6,24.8,93,30.55,10.0,Calm,Calm,-,N/A,,Mostly Cloudy,0,2013-11-21 08:15:00
3:35 AM,26.6,26.6,100,30.55,10.0,Calm,Calm,-,N/A,,Scattered Clouds,0,2013-11-21 08:35:00
3:55 AM,26.6,24.8,93,30.55,10.0,Calm,Calm,-,N/A,,Clear,0,2013-11-21 08:55:00
4:15 AM,26.6,26.6,100,30.55,10.0,Calm,Calm,-,N/A,,Mostly Cloudy,0,2013-11-21 09:15:00
4:35 AM,28.4,28.4,100,30.55,10.0,Calm,Calm,-,N/A,,Overcast,0,2013-11-21 09:35:00
4:55 AM,30.2,30.2,100,30.56,10.0,Calm,Calm,-,N/A,,Overcast,0,2013-11-21 09:55:00
5:15 AM,30.2,28.4,93,30.56,10.0,Calm,Calm,-,N/A,,Overcast,0,2013-11-21 10:15:00
5:35 AM,32.0,32.0,100,30.56,10.0,Calm,Calm,-,N/A,,Overcast,0,2013-11-21 10:35:00
5:55 AM,33.8,33.8,100,30.56,10.0,Calm,Calm,-,N/A,,Overcast,0,2013-11-21 10:55:00
6:15 AM,33.8,33.8,100,30.56,10.0,Calm,Calm,-,N/A,,Overcast,0,2013-11-21 11:15:00
7:50 AM,37.4,33.8,87,30.58,10.0,NNW,3.5,-,N/A,,Overcast,340,2013-11-21 12:50:00
8:50 AM,39.2,35.6,87,30.57,10.0,NNW,5.8,-,N/A,,Mostly Cloudy,340,2013-11-21 13:50:00
9:45 AM,39.2,33.8,81,30.54,10.0,North,3.5,-,N/A,,Overcast,10,2013-11-21 14:45:00
11:45 AM,44.6,33.8,66,30.53,10.0,Calm,Calm,-,N/A,,Overcast,0,2013-11-21 16:45:00
12:45 PM,46.4,35.6,66,30.50,10.0,Calm,Calm,-,N/A,,Overcast,0,2013-11-21 17:45:00
1:45 PM,46.4,35.6,66,30.47,10.0,Calm,Calm,-,N/A,,Overcast,0,2013-11-21 18:45:00
2:45 PM,48.2,37.4,66,30.45,10.0,Calm,Calm,-,N/A,,Overcast,0,2013-11-21 19:45:00
3:50 PM,48.2,37.4,66,30.45,10.0,Calm,Calm,-,N/A,,Overcast,0,2013-11-21 20:50:00
4:55 PM,46.4,37.4,71,30.44,10.0,Calm,Calm,-,N/A,,Overcast,0,2013-11-21 21:55:00
5:15 PM,46.4,37.4,71,30.45,10.0,Calm,Calm,-,N/A,,Overcast,0,2013-11-21 22:15:00
5:35 PM,46.4,39.2,76,30.45,10.0,Calm,Calm,-,N/A,,Overcast,0,2013-11-21 22:35:00
5:55 PM,48.2,39.2,71,30.45,10.0,Calm,Calm,-,N/A,,Overcast,0,2013-11-21 22:55:00
6:15 PM,46.4,39.2,76,30.45,10.0,Calm,Calm,-,N/A,,Overcast,0,2013-11-21 23:15:00
6:35 PM,46.4,39.2,76,30.45,10.0,Calm,Calm,-,N/A,,Overcast,0,2013-11-21 23:35:00
6:45 PM,48.2,39.2,71,30.45,10.0,Calm,Calm,-,N/A,,Overcast,0,2013-11-21 23:45:00
6:55 PM,46.4,39.2,76,30.45,10.0,Calm,Calm,-,N/A,,Overcast,0,2013-11-21 23:55:00
7:15 PM,46.4,41.0,81,30.44,10.0,Calm,Calm,-,N/A,,Overcast,0,2013-11-22 00:15:00
7:35 PM,46.4,41.0,81,30.44,10.0,Calm,Calm,-,N/A,,Overcast,0,2013-11-22 00:35:00
7:55 PM,46.4,39.2,76,30.43,10.0,SE,3.5,-,N/A,,Overcast,140,2013-11-22 00:55:00
8:15 PM,44.6,39.2,81,30.42,10.0,Calm,Calm,-,N/A,,Overcast,0,2013-11-22 01:15:00
8:35 PM,44.6,41.0,87,30.42,10.0,Calm,Calm,-,N/A,,Overcast,0,2013-11-22 01:35:00
8:55 PM,44.6,39.2,81,30.42,10.0,Calm,Calm,-,N/A,,Mostly Cloudy,0,2013-11-22 01:55:00
9:15 PM,42.8,41.0,93,30.42,10.0,Calm,Calm,-,N/A,,Scattered Clouds,0,2013-11-22 02:15:00
9:35 PM,42.8,41.0,93,30.42,10.0,Calm,Calm,-,N/A,,Overcast,0,2013-11-22 02:35:00
9:55 PM,42.8,39.2,87,30.42,10.0,Calm,Calm,-,N/A,,Overcast,0,2013-11-22 02:55:00
10:15 PM,41.0,39.2,93,30.42,10.0,Calm,Calm,-,N/A,,Mostly Cloudy,0,2013-11-22 03:15:00
10:35 PM,41.0,39.2,93,30.42,10.0,Calm,Calm,-,N/A,,Overcast,0,2013-11-22 03:35:00
10:55 PM,41.0,39.2,93,30.41,10.0,Calm,Calm,-,N/A,,Overcast,0,2013-11-22 03:55:00
11:15 PM,39.2,37.4,93,30.41,10.0,Calm,Calm,-,N/A,,Overcast,0,2013-11-22 04:15:00
11:35 PM,41.0,39.2,93,30.41,10.0,Calm,Calm,-,N/A,,Overcast,0,2013-11-22 04:35:00
11:55 PM,41.0,41.0,100,30.40,10.0,Calm,Calm,-,N/A,,Overcast,0,2013-11-22 04:55:00